Hanford, CA

9:14 PM PDT on May 27, 2017 (GMT -0700)
Hanford Municipal

Weather History for KHJO - March, 2012

Change the Weather History Date:

Thursday, March 8, 2012

  Actual Average Record
Temperature  
Mean Temperature 52 °F 54 °F  
Max Temperature 72 °F 67 °F 80 °F (2015)
Min Temperature 31 °F 42 °F 31 °F (2012)
Degree Days  
Heating Degree Days 13    
Month to date heating degree days 102  
Since 1 July heating degree days 2287  
Cooling Degree Days 0    
Month to date cooling degree days 0  
Year to date cooling degree days 0  
Growing Degree Days 1 (Base 50)    
Moisture  
Dew Point 30 °F    
Average Humidity 52    
Maximum Humidity 82    
Minimum Humidity 22    
Precipitation  
Precipitation 0.00 in 0.07 in 0.45 in (2013)
Month to date precipitation 0.00 0.60  
Year to date precipitation 1.04 4.37  
Since 1 July precipitation 2.28  
Snow  
Snow 0.00 in - - ()
Month to date snowfall 0.0  
Since 1 July snowfall 0.0  
Snow Depth 0.00 in    
Sea Level Pressure  
Sea Level Pressure 30.31 in    
Wind  
Wind Speed 2 mph (East)    
Max Wind Speed 6 mph    
Max Gust Speed -    
Visibility 10 miles    
Events      
T = Trace of Precipitation, MM = Missing Value Source: NWS Daily Summary

Daily Weather History Graph

Daily Weather History Graph

Search for Another Location

Airport or City:

Trip Planner

Search our weather history database for the weather conditions in past years. The results will help you decide how hot, cold, wet, or windy it might be!

Date:

Astronomy

Mar. 08, 2012 Rise Set
Actual Time 6:18 AM PST 6:00 PM PST
Civil Twilight 5:52 AM PST 6:25 PM PST
Nautical Twilight 5:23 AM PST 6:55 PM PST
Astronomical Twilight 4:53 AM PST 7:25 PM PST
Moon 6:50 PM PST (3/8) 6:07 AM PST (3/8)
Length of Visible Light 12h 33m
Length of Day
11h 41m
Full, 100% of the Moon is Illuminated
Mar 8
Full
Mar 14
Last Quarter
Mar 22
New
Mar 30
First Quarter
Apr 6
Full

Hourly Weather History & Observations

Time (PST) Temp. Windchill Dew Point Humidity Pressure Visibility Wind Dir Wind Speed Gust Speed Precip Events Conditions
12:53 AM 36.0 °F - 27.0 °F 70% 30.25 in 10.0 mi Calm Calm - N/A   Clear
1:53 AM 34.0 °F 31.0 °F 27.0 °F 75% 30.26 in 10.0 mi East 3.5 mph - N/A   Clear
2:53 AM 34.0 °F 31.0 °F 28.0 °F 79% 30.26 in 10.0 mi ESE 3.5 mph - N/A   Clear
3:53 AM 33.1 °F 28.7 °F 28.0 °F 82% 30.27 in 10.0 mi ENE 4.6 mph - N/A   Clear
4:53 AM 33.1 °F - 27.0 °F 78% 30.26 in 10.0 mi Calm Calm - N/A   Clear
5:53 AM 32.0 °F - 27.0 °F 82% 30.29 in 10.0 mi Calm Calm - N/A   Clear
6:53 AM 32.0 °F 28.7 °F 27.0 °F 82% 30.31 in 9.0 mi East 3.5 mph - N/A   Clear
7:53 AM 39.0 °F 35.7 °F 28.9 °F 67% 30.33 in 9.0 mi ESE 4.6 mph - N/A   Clear
8:53 AM 46.0 °F 44.8 °F 28.9 °F 51% 30.35 in 10.0 mi SE 3.5 mph - N/A   Clear
9:53 AM 51.1 °F - 32.0 °F 48% 30.36 in 10.0 mi Calm Calm - N/A   Clear
10:53 AM 57.0 °F - 30.9 °F 37% 30.36 in 10.0 mi Calm Calm - N/A   Clear
11:53 AM 61.0 °F - 28.0 °F 29% 30.34 in 10.0 mi Calm Calm - N/A   Clear
12:53 PM 64.0 °F - 30.0 °F 28% 30.32 in 10.0 mi NE 5.8 mph - N/A   Clear
1:53 PM 66.9 °F - 30.9 °F 26% 30.30 in 10.0 mi Variable 3.5 mph - N/A   Clear
2:53 PM 69.1 °F - 33.1 °F 26% 30.29 in 9.0 mi Variable 3.5 mph - N/A   Clear
3:53 PM 70.0 °F - 28.0 °F 21% 30.28 in 10.0 mi Calm Calm - N/A   Clear
4:53 PM 69.1 °F - 30.0 °F 23% 30.28 in 10.0 mi SSE 3.5 mph - N/A   Clear
5:53 PM 63.0 °F - 37.0 °F 38% 30.30 in 10.0 mi Calm Calm - N/A   Clear
6:53 PM 59.0 °F - 33.1 °F 38% 30.30 in 10.0 mi Calm Calm - N/A   Clear
7:53 PM 57.0 °F - 32.0 °F 39% 30.32 in 10.0 mi Calm Calm - N/A   Clear
8:53 PM 53.1 °F - 30.9 °F 43% 30.33 in 10.0 mi NNW 3.5 mph - N/A   Clear
9:53 PM 52.0 °F - 30.9 °F 45% 30.33 in 10.0 mi NNW 4.6 mph - N/A   Clear
10:53 PM 45.0 °F 41.8 °F 32.0 °F 60% 30.34 in 9.0 mi ENE 5.8 mph - N/A   Clear
11:53 PM 43.0 °F - 32.0 °F 65% 30.34 in 9.0 mi Calm Calm - N/A   Clear